LFKJLFKF

Guest
Details From LFKJ - Napoleon Bonaparte
To LFKF - Figari Sud Corse
Flight Number -
Tags generated
Created
Modified
Stats Distance 31 nm / 57 km
Max Altitude 3,200 ft / 975 m
Waypoints 3
Social Downloads 2
Likes 0
Share VATSIM

Download

Looking for another format? Having issues loading an existing format? Contact us
Advertisement - Login to hide

Notes

Basic altitude profile: - Ascent Rate: 100ft/min - Ascent Speed: 80kts - Cruise Altitude: 3000ft - Cruise Speed: 100kts - Descent Rate: 100ft/min - Descent Speed: 80kts Options: - Use NATs: yes - Use PACOTS: yes - Use low airways: yes - Use high airways: yes

Route

LFKJ AJO LFKF

ID Type Via Altitude (ft/m) Position (lat/lon) Dist (leg/tot) Name
O LFKJ APT - 0 / 0 41.92289 / 8.79959 - / 0 nm Napoleon Bonaparte
AJO VOR - 3,200 / 975 41.77053 / 8.77467 9 / 9 nm AJACCIO VOR-DME
O LFKF APT - 0 / 0 41.50206 / 9.09696 21 / 30 nm Figari Sud Corse

Altitude Profile

Advertisement - Login to hide

LFKJ

Details ICAO LFKJ (AJA)
Name Napoleon Bonaparte
Region France
Timezone Europe/Paris (UTC+2.0)
Stats Elevation 19 ft / 6 m (AMSL)
Location 41.921700° 8.801090°
Runways 1
Magnetic Variation 2.420° E

METAR

LFKJ 190430Z AUTO 04007KT CAVOK 15/12 Q1014 NOSIG

Decode

TAF

TAF LFKJ 190200Z 1903/2003 06005KT CAVOK BECMG 1908/1910 23010KT BECMG 1918/1920 05004KT

Decode

Departure Runways

ID Width Length Bearing (true/mag) Surface Threshold Overrun Markings Lighting
02 148 ft / 45 m 7,904 ft / 2,409 m 24.84° / 22.42° CONCRETE 0 ft / 0 m 161 ft / 49 m PREC-APP CENTERLINE EDGE THRESHOLD REIL-OMNI
20 148 ft / 45 m 7,904 ft / 2,409 m 204.85° / 202.43° CONCRETE 741 ft / 226 m 230 ft / 70 m PREC-APP CENTERLINE EDGE THRESHOLD REIL-OMNI

LFKF

Details ICAO LFKF (FSC)
Name Figari Sud Corse
Region France
Timezone Europe/Paris (UTC+2.0)
Stats Elevation 86 ft / 26 m (AMSL)
Location 41.502300° 9.096970°
Runways 1
Magnetic Variation 2.468° E

METAR

LFKF 190430Z AUTO 07009KT CAVOK 19/14 Q1013 NOSIG

Decode

TAF

TAF LFKF 190200Z 1903/2003 06010KT CAVOK BECMG 1913/1915 07004KT

Decode

Destination Runways

ID Width Length Bearing (true/mag) Surface Threshold Overrun Markings Lighting
05 148 ft / 45 m 8,144 ft / 2,482 m 47.43° / 44.97° CONCRETE 0 ft / 0 m 0 ft / 0 m APP CENTERLINE EDGE THRESHOLD
23 148 ft / 45 m 8,144 ft / 2,482 m 227.45° / 224.98° CONCRETE 0 ft / 0 m 0 ft / 0 m PREC-APP CENTERLINE EDGE THRESHOLD

Approach Navaids

Runway Type Ident Frequency Range Bearing (true/mag) Slope Elevation
23 LOC-ILS GR 110.50 MHz 27 nm / 50 km 227.44° / 224.97 ° - 86 ft / 26 m (AMSL)
23 DME GR 110.50 MHz 18 nm / 33 km - - 131 ft / 40 m (AMSL)
23 GS GR 110.50 MHz 27 nm / 50 km 227.44° / 224.97 ° 3.50° 86 ft / 26 m (AMSL)
23 OM OM - - 227.43° / 224.96 ° - 87 ft / 27 m (AMSL)

Popular Alternatives